Find Starlink 31306

NORAD ID: 58876 Int'l Des: 2024-020 Owner: SPXS Country: US Constellation: starlink operational
LEOCIRCULAR

現在のビュー

3D地球を読み込み中...

About Starlink 31306

Starlink 31306 (NORAD 58876) is a starlink constellation satellite (v2 mini) launched Jan 29, 2024 by SPXS of US. It operates in LEO, CIRCULAR orbit with a mass of 730.00 kg.

Starlink 31306について

説明を読み込み中...

次回通過

Passes for default location (London). Set your location on the main map for personalized predictions.

高度履歴

Loading altitude history...

軌道要素

1 58876U 24020A 26173.31372828 -.00000473 00000-0 -28609-5 0 9991
2 58876 53.1600 195.4537 0001168 89.0197 271.0940 15.34381884135282
Epoch: Jun 22, 2026 • Age: 28 hours

現在のステータス

高度 467.4 km
速度 7.63 km/s
衛星直下点 -16.14°S, 92.17°E
打ち上げ日 Jan 29, 2024
運用期間 2.3 years
タイプ internet

技術仕様

分類 Payload
質量 730.00 kg
乾燥質量 700.00 kg
総質量 730.00 kg
長さ 0.30 m
直径 4.10 m
スパン 29.00 m
形状 Box + pan
製造者 SPXS
バスタイプ Starlink V2M
フェーズステータス In Orbit
所有者/国 SPXS/US

Most Searched